This is the latest recevied weather packets stored in our database for station/object DM4XI-13. If no packets are shown the sender has not sent any weather packets the latest 10 day(s).
| Time | Temp. | Humidity | Pressure | Rain* | Wind** | Luminosity | Snow |
|---|---|---|---|---|---|---|---|
| 1778253872 | 18.33° C | 47% | 1014.2 hPa | 0 mm | 0.89 m/s, 24° | 189 W/m² | - |
| 1778253812 | 18.33° C | 46% | 1014.2 hPa | 0 mm | 0.89 m/s, 300° | 270 W/m² | - |
| 1778253750 | 18.33° C | 47% | 1014.3 hPa | 0 mm | 0.89 m/s, 281° | 253 W/m² | - |
| 1778253689 | 18.33° C | 47% | 1014.3 hPa | 0 mm | 0.89 m/s, 295° | 407 W/m² | - |
| 1778253628 | 18.33° C | 46% | 1014.3 hPa | 0 mm | 0.89 m/s, 34° | 345 W/m² | - |
| 1778253568 | 17.78° C | 46% | 1014.4 hPa | 0 mm | 0.89 m/s, 34° | 268 W/m² | - |
| 1778253506 | 17.78° C | 49% | 1014.4 hPa | 0 mm | 0.45 m/s, 158° | 248 W/m² | - |
| 1778253445 | 17.78° C | 47% | 1014.2 hPa | 0 mm | 0 m/s | 369 W/m² | - |
| 1778253385 | 17.78° C | 46% | 1014.4 hPa | 0 mm | 0.45 m/s, 136° | 417 W/m² | - |
| 1778253323 | 17.78° C | 48% | 1014.2 hPa | 0 mm | 0.89 m/s, 177° | 415 W/m² | - |
| 1778253263 | 17.78° C | 47% | 1014.2 hPa | 0 mm | 0.89 m/s, 159° | 348 W/m² | - |
| 1778253201 | 17.78° C | 47% | 1014.4 hPa | 0 mm | 0.89 m/s, 151° | 356 W/m² | - |
| 1778253141 | 17.78° C | 48% | 1014.3 hPa | 0 mm | 0.45 m/s, 177° | 256 W/m² | - |
| 1778253079 | 17.78° C | 48% | 1014.2 hPa | 0 mm | 0.89 m/s, 77° | 358 W/m² | - |
| 1778253019 | 17.78° C | 48% | 1014.1 hPa | 0 mm | 0.89 m/s, 67° | 317 W/m² | - |
| 1778252958 | 17.78° C | 49% | 1014.4 hPa | 0 mm | 0.45 m/s, 29° | 325 W/m² | - |
| 1778252896 | 17.22° C | 48% | 1014.3 hPa | 0 mm | 0.89 m/s, 15° | 375 W/m² | - |
| 1778252835 | 17.22° C | 50% | 1014.3 hPa | 0 mm | 0.89 m/s, 256° | 432 W/m² | - |
| 1778252774 | 17.22° C | 50% | 1014.3 hPa | 0 mm | 0.45 m/s, 173° | 420 W/m² | - |
| 1778252713 | 17.22° C | 49% | 1014.3 hPa | 0 mm | 0.89 m/s, 93° | 232 W/m² | - |
| 1778252653 | 17.22° C | 50% | 1014.1 hPa | 0 mm | 0 m/s | 201 W/m² | - |
| 1778252592 | 17.22° C | 50% | 1014.3 hPa | 0 mm | 0 m/s | 180 W/m² | - |
| 1778252531 | 17.22° C | 48% | 1014.3 hPa | 0 mm | 0 m/s | 160 W/m² | - |
| 1778252470 | 17.22° C | 47% | 1014.4 hPa | 0 mm | 0 m/s | 159 W/m² | - |
| 1778252408 | 17.78° C | 47% | 1014.4 hPa | 0 mm | 0.45 m/s, 74° | 161 W/m² | - |
* Rain latest hour (hover to see other rain measurements)
** Current wind speed in m/s (hover to see current wind gust speed)